Regional Weather Roundup
Issued by NWS Upton, NY

Current Version | Previous Version | Graphics & Text | Print | Product List | Glossary Off
Versions: 1 2 3 4 5 6 7 8 9 10 11 12 13 14 15 16 17 18 19 20 21 22 23 24 25 26 27 28 29 30 31 32 33 34 35 36 37 38 39 40 41 42 43 44 45 46 47 48 49 50

000
ASUS41 KOKX 012205
RWROKX

REGIONAL WEATHER ROUNDUP
NATIONAL WEATHER SERVICE NEW YORK NY
600 PM EDT WED OCT 01 2014

NOTE: "FAIR" INDICATES FEW OR NO CLOUDS BELOW 12,000 FEET WITH NO
SIGNIFICANT WEATHER AND/OR OBSTRUCTIONS TO VISIBILITY.

NYZ071-072-176-178-NJZ106-104-012300-
NEW YORK CITY METRO AREA


CITY           SKY/WX    TMP DP  RH WIND       PRES   REMARKS
CENTRAL PARK   CLOUDY    63  58  83 VRB6      30.06S
LAGUARDIA APRT CLOUDY    64  58  80 NE9       30.03S
KENNEDY INTL   CLOUDY    65  57  75 NE12      30.04S
NEWARK/LIBERTY CLOUDY    64  60  87 N8        30.03F
BRNX BOT. GARD   N/A     63  59  88 NE8       30.05F
TETERBORO      CLOUDY    65  59  81 NE3       30.03S
$$

NYZ177-179-078>081-012300-
LONG ISLAND NEW YORK

CITY           SKY/WX    TMP DP  RH WIND       PRES   REMARKS
FARMINGDALE    CLOUDY    63  59  87 N8        30.03S
ISLIP          CLOUDY    63  58  83 NE9       30.01R
SHIRLEY        CLOUDY    62  58  86 N6        30.03S
WESTHAMPTON    LGT RAIN  60  57  89 N13       30.04R FOG
MONTAUK POINT    N/A     61  58  90 N10G20    30.03S
$$

NYZ052-065-067-012300-
HUDSON VALLEY

CITY           SKY/WX    TMP DP  RH WIND       PRES   REMARKS
WHITE PLAINS   MOCLDY    62  57  83 NE6       30.04R
NEWBURGH       CLOUDY    63  59  88 NE9       30.06S
MONTGOMERY     CLOUDY    64  58  80 NE8       30.05S
POUGHKEEPSIE   CLOUDY    63  60  90 N5        30.05R
ALBANY         MOCLDY    64  57  78 N3        30.08R
$$

NJZ001-105-106-008-010-013-015-019>022-104-012300-
NEW JERSEY

CITY           SKY/WX    TMP DP  RH WIND       PRES   REMARKS
NEWARK/LIBERTY CLOUDY    64  60  87 N8        30.03F
TETERBORO      CLOUDY    65  59  81 NE3       30.03S
CALDWELL       CLOUDY    65  57  75 NE5       30.04S
MORRISTOWN     CLOUDY    66  59  77 NE5       30.04F
SOMERVILLE     CLOUDY    67  56  67 NE6       30.02S
LINDEN         CLOUDY    68  62  80 NE7       30.05S
SUSSEX         CLOUDY    66  57  72 N5        30.06R
ANDOVER          N/A     63  57  81 VRB6      30.05S
TRENTON        CLOUDY    67  56  67 NE12      30.03R
MILLVILLE      CLOUDY    68  58  70 NE9       30.02R
ATLANTIC CITY  CLOUDY    64  60  87 N7        30.02R
WRIGHTSTOWN    CLOUDY    64  59  83 NE9       30.01R
TOMS RIVER     CLOUDY    63  59  88 NE6       30.03R
BELMAR         CLOUDY    63  55  77 N7        30.03R
$$

PAZ047>061-062-071-012300-
EASTERN PENNSYLVANIA

CITY           SKY/WX    TMP DP  RH WIND       PRES   REMARKS
PHILADELPHIA   PTCLDY    70  58  65 NE8       30.02R
ALLENTOWN      MOCLDY    68  55  63 E9        30.03S
SCRANTON       CLEAR     69  53  56 E6        30.03S
$$

CTZ002-004>006-009-010-012-RIZ004-006-007-MAZ004-011-015-012300-
SOUTHERN NEW ENGLAND
 IN CT

CITY           SKY/WX    TMP DP  RH WIND       PRES   REMARKS
BRADLEY INTL   DRIZZLE   60  56  86 N7        30.06R
HARTFORD       CLOUDY    60  56  86 VRB6      30.06R
DANBURY        CLOUDY    61  56  83 NE5       30.07R
WTRBRY/OXFORD  CLOUDY    59  54  82 NE8       30.07S
BRIDGEPORT     CLOUDY    62  58  86 NE10      30.04R
MERIDEN        CLOUDY    60  57  89 N6        30.06R
NEW HAVEN      CLOUDY    63  58  83 N8        30.05R
CHESTER        DRIZZLE   57  57 100 N9        30.05S
GROTON         CLOUDY    59  57  93 N10       30.03R
WILLIMANTIC    LGT RAIN  59  55  87 N12       30.06R

 IN RI

CITY           SKY/WX    TMP DP  RH WIND       PRES   REMARKS
PROVIDENCE     CLOUDY    58  56  93 N10       30.05R
BLOCK ISLAND   CLOUDY    61  57  88 NE14G21   30.00F
WESTERLY       CLOUDY    59  57  93 N8        30.03S FOG

 IN MA

CITY           SKY/WX    TMP DP  RH WIND       PRES   REMARKS
BOSTON         LGT RAIN  56  55  97 NE16G23   30.08R FOG
WORCESTER      CLOUDY    54  53  97 NE7G18    30.08S FOG
WESTFIELD      CLOUDY    60  56  86 N8        30.08R
PROVINCETOWN   CLOUDY    61  57  88 NE14G20   30.06R
NANTUCKET      LGT RAIN  61  59  93 NE14      30.00R
$$

ANZ330-335-338-340-345-350-353-355-012300-
COASTAL MARINE OBSERVATIONS


STATION/POSITION TIME  SKY/WX   TEMP    WIND        PRES    VSBY  WAVE
                                AIR SEA DIR/SP/G                  HT/PER
                 (UTC)          (F)     (DEG/KT/KT) (MB)    (MI)  (FT/S)
NY HARB ENTRANCE NOT AVBL
4S FIRE IS       NOT AVBL
20S FIRE ISLAND  2200            64 67   30/ 17/ 21 1015.7          4/ 6
23SW MTP         2200                                 N/A           5/ 7
HUDSON CANYON    2200            65 70   20/ 21/ 25 1013.7          7/ 6
EXECUTION ROCKS  2200            65 68   10/ 12/ 16   N/A
WESTERN LI SOUND 2100            65      30/ 12/ 16   N/A           1/ 3
CENTRAL LI SOUND 2100            61 68   30/ 16/ 17   N/A           2/ 3
EASTERN LI SOUND 2100            62 65   30/ 14/ 17   N/A
ROBBINS REEF     2200            63      20/  7/  9 1015.7
$$


>>>>>>>>>>>>>>>>>>>>>>>>>>>> KEY <<<<<<<<<<<<<<<<<<<<<<<<<<<
>                                                          <
>     SKY/WX - SKY CONDITION/PRESENT WEATHER               <
>     TMP    - TEMPERATURE IN FAHRENHEIT                   <
>     DP     - DEWPOINT IN FAHRENHEIT                      <
>     RH     - RELATIVE HUMIDITY IN PERCENT                <
>     WIND   - DIRECTION AND SPEED IN MPH                  <
>     PRES   - MEAN SEA LEVEL PRESSURE IN INCHES OF HG     <
>     WCI    - WIND CHILL INDEX                            <
>     VSB    - VISIBILITY IN MILES                         <
>     HX     - HEAT INDEX                                  <
>     TC     - TEMPERATURE IN CELSIUS                      <
>     VRB    - VARIABLE WIND DIRECTION                     <
>                                                          <
>>>>>>>>>>>>>>>>>>>>>>>>>>>> KEY <<<<<<<<<<<<<<<<<<<<<<<<<<<





USA.gov is the U.S. government's official web portal to all federal, state and local government web resources and services.